Location: South Tamworth Observatory
(43.8246°N, 71.3026°W)
Time: 00:39:23
(UTC-04:00)

Amateur Radio Satellites - All Passes

Search period start: 07 July 2015 00:09
Search period end: 08 July 2015 00:09
Location: South Tamworth Observatory, 43.8246°N, 71.3026°W

Satellite Date Start Highest point End Downlink Frequencies (MHz)
Time Altitude Azimuth
BEESAT 07 Jul 00:09:34 00:11:37 13° 60° (ENE) 00:13:53 436.000
POLYITAN 1 07 Jul 00:09:56 00:14:10 81° 285° (WNW) 00:18:23 437.675
AISAT 07 Jul 00:10:29 00:13:20 16° 270° (W) 00:16:00 437.250
ANTELSAT 07 Jul 00:12:01 00:16:01 35° 290° (WNW) 00:20:05 437.575/2403.000
Cosmos 2491 07 Jul 00:15:04 00:19:48 16° 54° (NE) 00:24:59 435.465 / 435.565
CUBEBUG 1 07 Jul 00:19:01 00:22:36 23° 267° (W) 00:26:06 437.445
TIGRISAT 07 Jul 00:23:23 00:27:08 28° 291° (WNW) 00:30:55 435.000
SWISSCUBE 07 Jul 00:24:10 00:27:27 19° 63° (ENE) 00:30:53 437.505
ITUPSAT 1 07 Jul 00:30:40 00:34:03 20° 64° (ENE) 00:37:35 437.325
Cosmos 2499 07 Jul 00:31:36 00:32:25 10° 284° (WNW) 00:32:32 435.465 / 435.565
QB50P2 07 Jul 00:39:29 00:43:25 38° 289° (WNW) 00:47:19 145.880/145.840
POPSAT HIP 1 07 Jul 00:39:29 00:43:26 39° 289° (WNW) 00:47:20 437.405
SO-50 07 Jul 00:44:37 00:49:34 64° 53° (NE) 00:54:26 436.795
Oscar 19 07 Jul 00:51:26 00:52:41 11° 85° (E) 00:54:16 437.125/150
UNISAT 6 07 Jul 01:06:08 01:07:44 12° 298° (WNW) 01:09:08 437.425
SPROUT 07 Jul 01:11:03 01:14:23 21° 268° (W) 01:17:37 437.525
QB50P1 07 Jul 01:19:13 01:21:58 17° 295° (WNW) 01:24:34 145.935-145.965
NANOSAT C BR1 07 Jul 01:33:05 01:34:59 13° 298° (WNW) 01:36:43 145.865
RS-15 07 Jul 01:35:36 01:45:52 52° 113° (ESE) 01:56:34 29.354- 29.394
DUCHIFAT 1 07 Jul 01:39:34 01:40:55 11° 298° (WNW) 01:42:03 145.980
TISAT 1 07 Jul 01:43:06 01:45:30 14° 271° (W) 01:47:43 437.305
BUGSAT 1 07 Jul 01:43:50 01:45:55 13° 297° (WNW) 01:47:50 437.445
BEESAT 07 Jul 01:44:04 01:48:51 84° 255° (WSW) 01:53:42 436.000
PCSat 07 Jul 01:51:18 01:55:11 20° 253° (WSW) 01:58:52 145.827
SWISSCUBE 07 Jul 02:00:16 02:04:57 54° 260° (W) 02:09:40 437.505
AIST 1 07 Jul 02:02:53 02:06:57 37° 75° (ENE) 02:10:59
ITUPSAT 1 07 Jul 02:06:56 02:11:37 51° 260° (W) 02:16:19 437.325
Cosmos 2491 07 Jul 02:09:55 02:18:41 72° 79° (ENE) 02:27:23 435.465 / 435.565
KKS-1 07 Jul 02:15:06 02:19:10 36° 69° (ENE) 02:23:16 437.445
SO-50 07 Jul 02:26:16 02:29:40 18° 249° (WSW) 02:32:53 436.795
Oscar 19 07 Jul 02:27:43 02:32:53 90° 99° (E) 02:38:02 437.125/150
JAS-2 07 Jul 02:39:22 02:42:59 15° 86° (E) 02:47:12 435.910
YUBILEINY 07 Jul 02:44:19 02:52:29 49° 89° (E) 03:00:46 435.215
ITAMSAT 1 07 Jul 02:45:29 02:50:18 37° 97° (E) 02:55:08 435.822/435.867
Gurwin Techsat 1B 07 Jul 02:55:07 03:00:17 49° 99° (E) 03:05:26 435.225
MOZHAYETS 4 07 Jul 02:55:08 02:56:28 11° 60° (ENE) 02:58:02
STARS 07 Jul 02:59:57 03:04:19 66° 74° (ENE) 03:08:41 437.465
AIST 1 07 Jul 03:41:11 03:44:22 19° 272° (W) 03:47:23
RS-15 07 Jul 03:47:41 03:58:22 53° 318° (NW) 04:09:26 29.354- 29.394
KKS-1 07 Jul 03:52:21 03:55:55 23° 267° (W) 03:59:24 437.445
Cosmos 2491 07 Jul 04:07:58 04:14:50 26° 278° (W) 04:21:21 435.465 / 435.565
Oscar 19 07 Jul 04:09:05 04:11:35 13° 301° (WNW) 04:13:52 437.125/150
Cosmos 2504 07 Jul 04:17:35 04:21:38 17° 81° (E) 04:26:03 435.465 / 435.565
JAS-2 07 Jul 04:22:12 04:28:56 82° 103° (ESE) 04:36:28 435.910
ITAMSAT 1 07 Jul 04:25:11 04:29:43 30° 294° (WNW) 04:34:10 435.822/435.867
MOZHAYETS 4 07 Jul 04:28:28 04:33:03 89° 263° (W) 04:37:42
Gurwin Techsat 1B 07 Jul 04:35:44 04:39:59 24° 296° (WNW) 04:44:08 435.225
STARS 07 Jul 04:39:20 04:41:17 12° 272° (W) 04:43:00 437.465
AO-7 07 Jul 04:39:31 04:47:47 59° 103° (ESE) 04:55:59 29.400- 29.500
YUBILEINY 07 Jul 04:41:31 04:49:34 39° 291° (WNW) 04:57:32 435.215
HORYU 2 07 Jul 04:42:26 04:46:55 79° 102° (ESE) 04:51:24 437.375
CUBESAT XI-V 07 Jul 05:04:17 05:07:44 21° 65° (ENE) 05:11:19 437.345
STRAND 1 07 Jul 05:30:53 05:34:01 17° 61° (ENE) 05:37:20 437.568
BEESAT 2 07 Jul 05:40:27 05:41:29 11° 109° (ESE) 05:42:44 435.950
PRISM 07 Jul 05:41:09 05:43:26 15° 63° (ENE) 05:45:52 437.425
CUTE-I 07 Jul 05:43:35 05:45:32 12° 86° (E) 05:47:48 437.470
RS-15 07 Jul 06:05:04 06:14:10 27° 350° (N) 06:23:31 29.354- 29.394
Cosmos 2504 07 Jul 06:06:06 06:13:01 79° 279° (W) 06:20:02 435.465 / 435.565
JAS-2 07 Jul 06:08:34 06:13:30 22° 299° (WNW) 06:18:34 435.910
Cubesat XI-IV 07 Jul 06:16:50 06:21:13 26° 93° (E) 06:25:41 437.490
HORYU 2 07 Jul 06:21:06 06:23:00 12° 299° (WNW) 06:24:43 437.375
O/OREOS (USA 219) 07 Jul 06:25:19 06:29:05 28° 105° (ESE) 06:32:56 437.305
AO-7 07 Jul 06:32:49 06:40:16 36° 302° (WNW) 06:47:32 29.400- 29.500
CUBESAT XI-V 07 Jul 06:40:21 06:44:54 46° 262° (W) 06:49:27 437.345
ISS 07 Jul 06:45:48 06:48:28 24° 137° (SE) 06:51:10 145.825
VERMONT LUNAR 07 Jul 06:55:29 06:58:07 25° 162° (SSE) 07:00:46 437.305
BEESAT 3 07 Jul 06:58:28 07:02:33 89° 307° (NW) 07:06:41 437.485
STRAND 1 07 Jul 07:07:33 07:12:42 71° 258° (WSW) 07:17:53 437.568
PRISM 07 Jul 07:14:21 07:18:27 56° 259° (W) 07:22:36 437.425
BEESAT 2 07 Jul 07:14:53 07:19:00 77° 305° (NW) 07:23:10 435.950
AIST 2 07 Jul 07:15:34 07:19:12 28° 115° (ESE) 07:22:55 435.215
DANDE 07 Jul 07:16:34 07:22:39 36° 96° (E) 07:27:29 436.750
CUTE-I 07 Jul 07:21:04 07:26:28 88° 291° (WNW) 07:31:49 437.470
GONETS M04 07 Jul 07:24:00 07:29:38 20° 79° (E) 07:35:39
CUSAT 1 07 Jul 07:34:34 07:40:37 66° 99° (E) 07:45:10 437.405
AUBIESAT-1 07 Jul 07:34:55 07:37:25 20° 61° (ENE) 07:40:04 437.475
BRITE-PL 07 Jul 07:41:26 07:43:59 16° 89° (E) 07:46:39 437.365/2234.400
HO-68 07 Jul 07:43:31 07:45:16 11° 83° (E) 07:47:37 435.675
PHONESAT 2.4 07 Jul 07:55:53 07:58:25 19° 156° (SSE) 08:00:59 2401.200-2431.200
Cubesat XI-IV 07 Jul 07:56:26 08:01:33 44° 291° (WNW) 08:06:35 437.490
Cosmos 2504 07 Jul 08:03:10 08:06:42 14° 303° (WNW) 08:09:52 435.465 / 435.565
O/OREOS (USA 219) 07 Jul 08:04:27 08:08:27 31° 303° (WNW) 08:12:26 437.305
M-CUBED/EXP-1 PRIME 07 Jul 08:11:12 08:14:29 63° 70° (ENE) 08:17:59 437.505
RS-15 07 Jul 08:21:20 08:31:14 32° 23° (NNE) 08:41:40 29.354- 29.394
ISS 07 Jul 08:21:32 08:24:42 49° 334° (NNW) 08:27:53 145.825
CUTE 1.7 + AOD 2 07 Jul 08:22:47 08:25:12 15° 89° (E) 08:27:46 437.475
CANX-2 07 Jul 08:26:13 08:29:09 18° 91° (E) 08:32:12 2200.000
VERMONT LUNAR 07 Jul 08:31:42 08:34:41 45° 178° (S) 08:37:42 437.305
GOMX 1 07 Jul 08:38:35 08:42:29 38° 97° (E) 08:46:23 467.674
BEESAT 3 07 Jul 08:38:51 08:41:09 14° 324° (NW) 08:43:22 437.485
AIST 2 07 Jul 08:53:47 08:57:43 34° 313° (NW) 09:01:37 435.215
BEESAT 2 07 Jul 08:55:46 08:57:48 13° 326° (NW) 08:59:45 435.950
DANDE 07 Jul 08:59:47 09:05:48 34° 285° (WNW) 09:10:28 436.750
CUTE-I 07 Jul 09:03:05 09:05:51 14° 302° (WNW) 09:08:22 437.470
SEEDS 07 Jul 09:05:06 09:08:59 34° 96° (E) 09:12:54 437.485
DOVE 4 07 Jul 09:07:47 09:11:49 49° 99° (E) 09:15:54 437.250
AAUSAT CUBESAT 2 07 Jul 09:08:45 09:12:15 25° 94° (E) 09:15:49 437.432
AUBIESAT-1 07 Jul 09:09:10 09:12:04 26° 260° (W) 09:15:03 437.475
GONETS M04 07 Jul 09:16:39 09:25:28 87° 280° (W) 09:34:16
BRITE-PL 07 Jul 09:18:50 09:22:55 44° 288° (WNW) 09:26:51 437.365/2234.400
CUSAT 1 07 Jul 09:20:01 09:23:19 15° 290° (WNW) 09:26:00 437.405
Cosmos 2499 07 Jul 09:21:20 09:25:56 20° 81° (E) 09:30:53 435.465 / 435.565
HO-68 07 Jul 09:27:23 09:34:32 69° 103° (ESE) 09:41:40 435.675
CINEMA 3 07 Jul 09:31:03 09:35:00 40° 98° (E) 09:39:03 145.822/145.860
PHONESAT 2.4 07 Jul 09:32:43 09:36:00 43° 172° (S) 09:39:17 2401.200-2431.200
ANTELSAT 07 Jul 09:36:21 09:39:46 24° 67° (ENE) 09:43:16 437.575/2403.000
COMPASS 1 07 Jul 09:37:05 09:41:18 62° 101° (E) 09:45:30 437.405
TIGRISAT 07 Jul 09:46:59 09:50:40 30° 69° (ENE) 09:54:25 435.000
ZACube-1 07 Jul 09:48:18 09:51:16 19° 92° (E) 09:54:25 437.345
Oscar 11 07 Jul 09:49:39 09:53:34 32° 96° (E) 09:57:31 145.826/435.025
CUTE 1.7 + AOD 2 07 Jul 09:57:17 10:01:28 52° 287° (WNW) 10:05:38 437.475
CUBEBUG 2 07 Jul 09:58:49 10:02:47 39° 98° (E) 10:06:51 437.445
POPSAT HIP 1 07 Jul 09:58:53 10:01:43 18° 65° (ENE) 10:04:41 437.405
QB50P2 07 Jul 09:58:54 10:01:49 19° 66° (ENE) 10:04:50 145.880/145.840
ISS 07 Jul 09:59:03 10:01:37 21° 353° (N) 10:04:11 145.825
CANX-2 07 Jul 10:01:14 10:05:19 42° 288° (WNW) 10:09:22 2200.000
VERMONT LUNAR 07 Jul 10:08:30 10:11:18 30° 195° (SSW) 10:14:07 437.305
GOMX 1 07 Jul 10:17:26 10:20:26 19° 294° (WNW) 10:23:18 467.674
FUNcube-1 07 Jul 10:22:17 10:26:19 42° 98° (E) 10:30:26 145.935
UNISAT 6 07 Jul 10:27:24 10:31:40 84° 77° (ENE) 10:35:58 437.425
RS-15 07 Jul 10:34:18 10:46:01 76° 52° (NE) 10:58:12 29.354- 29.394
QB50P1 07 Jul 10:36:13 10:40:13 43° 72° (ENE) 10:44:15 145.935-145.965
DELFI C3 07 Jul 10:37:46 10:41:52 78° 101° (ESE) 10:45:56 145.870
SEEDS 07 Jul 10:41:13 10:44:38 23° 292° (WNW) 10:47:56 437.485
UWE-3 07 Jul 10:43:10 10:47:25 86° 288° (WNW) 10:51:46 435.000/436.395/437.385
AAUSAT CUBESAT 2 07 Jul 10:44:11 10:47:52 29° 291° (WNW) 10:51:30 437.432
DOVE 4 07 Jul 10:46:46 10:49:16 15° 295° (WNW) 10:51:39 437.250
NANOSAT C BR1 07 Jul 10:48:59 10:53:09 59° 74° (ENE) 10:57:19 145.865
DUCHIFAT 1 07 Jul 10:54:47 10:58:58 67° 75° (ENE) 11:03:10 145.980
BUGSAT 1 07 Jul 10:57:52 11:01:55 48° 73° (ENE) 11:05:58 437.445
POLYITAN 1 07 Jul 11:03:54 11:08:09 89° 78° (ENE) 11:12:25 437.675
ESTCUBE 1 07 Jul 11:05:43 11:08:37 17° 90° (E) 11:11:40 437.505/2401.250
DX 1 07 Jul 11:07:04 11:11:15 44° 99° (E) 11:15:23 434.975-435.025
CINEMA 3 07 Jul 11:08:59 11:12:00 19° 294° (WNW) 11:14:57 145.822/145.860
VELOX 1 07 Jul 11:09:56 11:13:39 27° 95° (E) 11:17:25 145.980
PHONESAT 2.4 07 Jul 11:10:28 11:13:45 42° 189° (S) 11:17:02 2401.200-2431.200
Cosmos 2499 07 Jul 11:11:17 11:18:18 73° 280° (W) 11:25:33 435.465 / 435.565
ANTELSAT 07 Jul 11:12:36 11:16:27 31° 264° (W) 11:20:15 437.575/2403.000
COMPASS 1 07 Jul 11:14:16 11:16:32 14° 296° (WNW) 11:18:36 437.405
HO-68 07 Jul 11:15:58 11:21:46 27° 302° (WNW) 11:27:23 435.675
HUMSAT D 07 Jul 11:16:34 11:20:45 75° 101° (ESE) 11:24:58 437.325/437.525
GONETS M04 07 Jul 11:17:34 11:23:51 20° 302° (WNW) 11:29:45
UKube-1 07 Jul 11:23:03 11:27:21 61° 101° (E) 11:31:37 .
ZACube-1 07 Jul 11:23:50 11:27:50 40° 288° (WNW) 11:31:52 437.345
TIGRISAT 07 Jul 11:23:53 11:27:27 25° 266° (W) 11:30:58 435.000
Oscar 11 07 Jul 11:26:02 11:29:38 25° 292° (WNW) 11:33:09 145.826/435.025
POPSAT HIP 1 07 Jul 11:33:15 11:37:18 44° 261° (W) 11:41:22 437.405
QB50P2 07 Jul 11:33:23 11:37:26 42° 261° (W) 11:41:29 145.880/145.840
ISS 07 Jul 11:35:59 11:38:44 25° 14° (NNE) 11:41:30 145.825
CUBEBUG 2 07 Jul 11:36:07 11:39:16 20° 293° (WNW) 11:42:23 437.445
AISAT 07 Jul 11:57:39 12:02:05 89° 93° (E) 12:06:29 437.250
50 SAT 07 Jul 11:58:27 12:02:22 71° 284° (WNW) 12:06:17 437.505
FUNcube-1 07 Jul 11:59:21 12:02:24 19° 294° (WNW) 12:05:23 145.935
CUBEBUG 1 07 Jul 12:05:25 12:09:44 59° 101° (E) 12:14:01 437.445
Oscar 19 07 Jul 12:08:28 12:12:08 21° 63° (ENE) 12:15:56 437.125/150
QB50P1 07 Jul 12:13:26 12:16:21 17° 269° (W) 12:19:07 145.935-145.965
DELFI C3 07 Jul 12:15:29 12:16:24 10° 298° (WNW) 12:17:06 145.870
NANOSAT C BR1 07 Jul 12:27:25 12:29:26 13° 271° (W) 12:31:15 145.865
DUCHIFAT 1 07 Jul 12:33:53 12:35:18 11° 272° (W) 12:36:29 145.980
BUGSAT 1 07 Jul 12:35:03 12:37:41 16° 270° (W) 12:40:09 437.445
Gurwin Techsat 1B 07 Jul 12:41:10 12:43:33 13° 58° (ENE) 12:46:10 435.225
ESTCUBE 1 07 Jul 12:41:25 12:45:50 50° 288° (WNW) 12:50:12 437.505/2401.250
DX 1 07 Jul 12:44:04 12:47:12 19° 295° (WNW) 12:50:13 434.975-435.025
VELOX 1 07 Jul 12:46:20 12:50:13 30° 292° (WNW) 12:54:02 145.980
RS-15 07 Jul 12:47:33 12:57:45 35° 253° (WSW) 13:07:54 29.354- 29.394
PHONESAT 2.4 07 Jul 12:48:51 12:51:20 18° 205° (SSW) 12:53:47 2401.200-2431.200
YUBILEINY 07 Jul 12:52:48 12:59:45 26° 63° (ENE) 13:06:58 435.215
HUMSAT D 07 Jul 12:54:29 12:55:59 11° 298° (WNW) 12:57:16 437.325/437.525
SPROUT 07 Jul 12:55:02 12:59:17 60° 100° (E) 13:03:30 437.525
UKube-1 07 Jul 13:00:35 13:03:03 15° 297° (WNW) 13:05:21 .
Cosmos 2499 07 Jul 13:09:53 13:13:11 13° 305° (NW) 13:16:06 435.465 / 435.565
ISS 07 Jul 13:12:12 13:15:27 87° 213° (SSW) 13:18:41 145.825
Cosmos 2491 07 Jul 13:20:47 13:25:18 16° 77° (ENE) 13:30:20 435.465 / 435.565
TISAT 1 07 Jul 13:23:49 13:28:01 82° 103° (ESE) 13:32:12 437.305
AISAT 07 Jul 13:36:58 13:38:02 11° 300° (WNW) 13:38:52 437.250
BEESAT 3 07 Jul 13:39:16 13:41:18 13° 35° (NE) 13:43:25 437.485
CUBEBUG 1 07 Jul 13:43:07 13:45:40 15° 297° (WNW) 13:48:02 437.445
BEESAT 07 Jul 13:43:37 13:47:21 23° 92° (E) 13:51:10 436.000
Oscar 19 07 Jul 13:46:05 13:51:08 55° 260° (W) 13:56:11 437.125/150
AO-7 07 Jul 13:50:20 13:56:12 22° 50° (NE) 14:02:19 29.400- 29.500
BEESAT 2 07 Jul 13:55:54 13:58:17 15° 36° (NE) 14:00:45 435.950
SWISSCUBE 07 Jul 13:59:18 14:03:41 35° 96° (E) 14:08:05 437.505
ITAMSAT 1 07 Jul 14:04:36 14:09:46 66° 73° (ENE) 14:14:59 435.822/435.867
ITUPSAT 1 07 Jul 14:06:12 14:10:39 36° 97° (E) 14:15:06 437.325
HORYU 2 07 Jul 14:10:03 14:10:14 10° 59° (ENE) 14:10:41 437.375
Gurwin Techsat 1B 07 Jul 14:17:30 14:22:49 87° 76° (ENE) 14:28:11 435.225
SPROUT 07 Jul 14:32:35 14:34:55 14° 297° (WNW) 14:37:07 437.525
AIST 1 07 Jul 14:34:19 14:37:36 21° 89° (E) 14:41:01
JAS-2 07 Jul 14:37:21 14:42:04 36° 67° (ENE) 14:47:09 435.910
YUBILEINY 07 Jul 14:48:50 14:57:36 74° 265° (W) 15:06:19 435.215
PCSat 07 Jul 14:49:50 14:54:54 44° 114° (ESE) 15:00:04 145.827
ISS 07 Jul 14:50:12 14:51:24 11° 228° (SW) 14:52:30 145.825
STARS 07 Jul 14:50:58 14:51:50 11° 87° (E) 14:52:59 437.465
O/OREOS (USA 219) 07 Jul 14:57:08 14:57:14 10° 44° (NE) 14:57:33 437.305
TISAT 1 07 Jul 15:02:14 15:03:13 11° 299° (WNW) 15:03:59 437.305
SO-50 07 Jul 15:02:20 15:04:52 15° 110° (ESE) 15:07:40 436.795
Cosmos 2491 07 Jul 15:12:04 15:20:53 79° 95° (E) 15:29:42 435.465 / 435.565
BEESAT 3 07 Jul 15:15:51 15:19:56 84° 54° (NE) 15:23:57 437.485
BEESAT 07 Jul 15:20:52 15:25:24 42° 290° (WNW) 15:29:52 436.000
BEESAT 2 07 Jul 15:32:50 15:36:56 83° 239° (WSW) 15:40:59 435.950
AIST 2 07 Jul 15:35:38 15:39:24 31° 46° (NE) 15:43:08 435.215
SWISSCUBE 07 Jul 15:37:19 15:41:27 28° 293° (WNW) 15:45:28 437.505
AO-7 07 Jul 15:39:37 15:47:58 85° 72° (ENE) 15:56:24 29.400- 29.500
KKS-1 07 Jul 15:40:52 15:45:16 62° 101° (E) 15:49:39 437.445
HORYU 2 07 Jul 15:41:48 15:46:13 86° 72° (ENE) 15:50:41 437.375
ITUPSAT 1 07 Jul 15:44:20 15:48:24 27° 294° (WNW) 15:52:22 437.325
ITAMSAT 1 07 Jul 15:46:26 15:49:50 17° 271° (W) 15:53:01 435.822/435.867
Cosmos 2504 07 Jul 15:49:37 15:56:25 36° 71° (ENE) 16:03:44 435.465 / 435.565
Gurwin Techsat 1B 07 Jul 16:01:20 16:03:38 12° 274° (W) 16:05:38 435.225
AIST 1 07 Jul 16:11:01 16:15:05 35° 285° (WNW) 16:19:08
JAS-2 07 Jul 16:22:51 16:27:23 29° 267° (W) 16:32:04 435.910
MOZHAYETS 4 07 Jul 16:23:02 16:26:24 20° 91° (E) 16:29:54
STARS 07 Jul 16:24:31 16:28:54 75° 285° (WNW) 16:33:16 437.465
O/OREOS (USA 219) 07 Jul 16:33:06 16:37:38 70° 66° (ENE) 16:42:10 437.305
PCSat 07 Jul 16:33:38 16:38:30 32° 313° (NW) 16:43:20 145.827
SO-50 07 Jul 16:40:06 16:44:51 74° 307° (NW) 16:49:46 436.795
YUBILEINY 07 Jul 16:48:32 16:53:03 15° 284° (WNW) 16:56:58 435.215
CUTE-I 07 Jul 17:05:43 17:09:58 25° 64° (ENE) 17:14:20 437.470
Cosmos 2491 07 Jul 17:11:51 17:18:54 25° 299° (WNW) 17:25:39 435.465 / 435.565
AIST 2 07 Jul 17:14:13 17:17:57 31° 244° (WSW) 17:21:35 435.215
KKS-1 07 Jul 17:18:52 17:21:28 15° 297° (WNW) 17:23:53 437.445
GONETS M04 07 Jul 17:33:33 17:34:07 10° 47° (NE) 17:35:20
AO-7 07 Jul 17:35:42 17:41:53 21° 271° (W) 17:47:45 29.400- 29.500
Cubesat XI-IV 07 Jul 17:39:55 17:45:02 48° 70° (ENE) 17:50:14 437.490
Cosmos 2504 07 Jul 17:41:36 17:48:50 49° 269° (W) 17:56:29 435.465 / 435.565
DANDE 07 Jul 17:58:33 17:59:02 10° 66° (ENE) 17:59:37 436.750
MOZHAYETS 4 07 Jul 17:59:27 18:03:53 44° 289° (WNW) 18:08:17
CUSAT 1 07 Jul 18:11:07 18:13:24 27° 74° (ENE) 18:15:46 437.405
O/OREOS (USA 219) 07 Jul 18:14:33 18:16:33 12° 260° (W) 18:18:17 437.305
HO-68 07 Jul 18:14:49 18:17:32 13° 48° (NE) 18:20:37 435.675
SO-50 07 Jul 18:23:14 18:26:18 16° 328° (NNW) 18:29:19 436.795
CUBESAT XI-V 07 Jul 18:35:39 18:40:03 40° 97° (E) 18:44:25 437.345
CUTE-I 07 Jul 18:44:36 18:49:47 48° 261° (W) 18:55:00 437.470
BRITE-PL 07 Jul 18:52:24 18:56:50 28° 68° (ENE) 19:01:06 437.365/2234.400
PRISM 07 Jul 18:56:09 18:58:58 18° 91° (E) 19:01:54 437.425
STRAND 1 07 Jul 19:16:59 19:21:41 35° 96° (E) 19:26:22 437.568
CUTE 1.7 + AOD 2 07 Jul 19:17:48 19:19:49 14° 63° (ENE) 19:22:02 437.475
Cubesat XI-IV 07 Jul 19:21:06 19:25:26 24° 268° (W) 19:29:41 437.490
CANX-2 07 Jul 19:21:08 19:23:41 16° 65° (ENE) 19:26:23 2200.000
GONETS M04 07 Jul 19:25:25 19:33:48 51° 73° (ENE) 19:42:13
DANDE 07 Jul 19:40:23 19:42:16 17° 268° (W) 19:44:02 436.750
GOMX 1 07 Jul 19:47:21 19:52:14 54° 73° (ENE) 19:56:50 467.674
HO-68 07 Jul 19:57:00 20:03:57 58° 68° (ENE) 20:10:58 435.675
SEEDS 07 Jul 19:58:36 20:02:10 28° 69° (ENE) 20:05:49 437.485
AAUSAT CUBESAT 2 07 Jul 20:01:12 20:04:18 21° 67° (ENE) 20:07:30 437.432
CUBESAT XI-V 07 Jul 20:13:32 20:17:17 23° 294° (WNW) 20:20:54 437.345
DOVE 4 07 Jul 20:14:16 20:18:58 62° 74° (ENE) 20:23:24 437.250
COMPASS 1 07 Jul 20:29:25 20:33:25 48° 73° (ENE) 20:37:29 437.405
BRITE-PL 07 Jul 20:30:12 20:35:14 39° 263° (W) 20:39:57 437.365/2234.400
PRISM 07 Jul 20:30:40 20:34:38 41° 289° (WNW) 20:38:33 437.425
CINEMA 3 07 Jul 20:34:06 20:38:18 44° 72° (ENE) 20:42:23 145.822/145.860
Oscar 11 07 Jul 20:45:50 20:49:34 30° 69° (ENE) 20:53:22 145.826/435.025
ZACube-1 07 Jul 20:46:13 20:48:59 18° 66° (ENE) 20:51:53 437.345
AUBIESAT-1 07 Jul 20:47:33 20:50:17 17° 97° (E) 20:53:15 437.475
CUTE 1.7 + AOD 2 07 Jul 20:51:07 20:55:17 62° 260° (W) 20:59:29 437.475
CANX-2 07 Jul 20:55:10 20:59:15 50° 261° (W) 21:03:24 2200.000
STRAND 1 07 Jul 20:56:18 21:00:49 31° 294° (WNW) 21:05:15 437.568
CUBEBUG 2 07 Jul 20:58:32 21:02:26 38° 72° (ENE) 21:06:20 437.445
Cosmos 2499 07 Jul 20:59:16 21:06:44 44° 73° (ENE) 21:14:48 435.465 / 435.565
FUNcube-1 07 Jul 21:19:29 21:23:20 38° 71° (ENE) 21:27:13 145.935
GONETS M04 07 Jul 21:22:41 21:30:29 37° 274° (W) 21:38:06
AISAT 07 Jul 21:23:40 21:24:53 11° 60° (ENE) 21:26:21 437.250
M-CUBED/EXP-1 PRIME 07 Jul 21:24:16 21:28:25 44° 104° (ESE) 21:32:50 437.505
DELFI C3 07 Jul 21:26:01 21:29:56 55° 74° (ENE) 21:33:54 145.870
GOMX 1 07 Jul 21:27:11 21:30:39 18° 269° (W) 21:33:51 467.674
SEEDS 07 Jul 21:34:25 21:37:57 26° 266° (W) 21:41:28 437.485
AAUSAT CUBESAT 2 07 Jul 21:35:54 21:39:43 35° 264° (W) 21:43:33 437.432
UWE-3 07 Jul 21:41:34 21:45:47 90° 201° (SSW) 21:49:58 435.000/436.395/437.385
HO-68 07 Jul 21:46:02 21:52:08 29° 267° (W) 21:58:06 435.675
DOVE 4 07 Jul 21:54:30 21:57:08 14° 271° (W) 21:59:30 437.250
PCSat 07 Jul 21:54:36 21:56:31 12° 30° (NNE) 21:58:37 145.827
DX 1 07 Jul 22:03:46 22:07:57 46° 71° (ENE) 22:12:10 434.975-435.025
ESTCUBE 1 07 Jul 22:06:46 22:09:59 20° 65° (ENE) 22:13:20 437.505/2401.250
COMPASS 1 07 Jul 22:06:56 22:09:25 15° 271° (W) 22:11:47 437.405
VELOX 1 07 Jul 22:08:45 22:12:36 29° 68° (ENE) 22:16:30 145.980
HUMSAT D 07 Jul 22:09:29 22:13:31 60° 74° (ENE) 22:17:34 437.325/437.525
CINEMA 3 07 Jul 22:12:43 22:15:45 17° 269° (W) 22:18:34 145.822/145.860
UNISAT 6 07 Jul 22:18:51 22:21:31 16° 90° (E) 22:24:22 437.425
UKube-1 07 Jul 22:18:54 22:23:11 61° 73° (ENE) 22:27:29 .
AUBIESAT-1 07 Jul 22:21:03 22:25:16 55° 292° (WNW) 22:29:44 437.475
ZACube-1 07 Jul 22:21:07 22:25:06 42° 262° (W) 22:29:03 437.345
Oscar 11 07 Jul 22:22:08 22:25:46 26° 266° (W) 22:29:22 145.826/435.025
CUBEBUG 2 07 Jul 22:36:13 22:39:20 19° 268° (W) 22:42:17 437.445
50 SAT 07 Jul 22:43:30 22:47:19 75° 75° (ENE) 22:51:10 437.505
POLYITAN 1 07 Jul 22:49:38 22:51:34 13° 89° (E) 22:53:41 437.675
Cosmos 2499 07 Jul 22:52:33 22:59:54 42° 271° (W) 23:07:38 435.465 / 435.565
AISAT 07 Jul 22:56:22 23:00:52 87° 256° (WSW) 23:05:21 437.250
FUNcube-1 07 Jul 22:56:51 22:59:52 19° 268° (W) 23:02:45 145.935
M-CUBED/EXP-1 PRIME 07 Jul 22:59:41 23:03:00 22° 298° (WNW) 23:06:23 437.505
ANTELSAT 07 Jul 23:02:17 23:06:32 44° 99° (E) 23:10:52 437.575/2403.000
CUBEBUG 1 07 Jul 23:02:31 23:06:52 58° 73° (ENE) 23:11:14 437.445
DELFI C3 07 Jul 23:03:36 23:05:26 12° 272° (W) 23:07:05 145.870
TIGRISAT 07 Jul 23:12:54 23:17:14 56° 100° (E) 23:21:40 435.000
POPSAT HIP 1 07 Jul 23:17:14 23:20:44 25° 94° (E) 23:24:17 437.405
QB50P2 07 Jul 23:17:28 23:21:02 27° 94° (E) 23:24:39 145.880/145.840
SO-50 07 Jul 23:30:26 23:34:31 25° 40° (NE) 23:38:38 436.795
PCSat 07 Jul 23:36:07 23:41:23 48° 52° (NE) 23:46:38 145.827
DX 1 07 Jul 23:41:27 23:44:28 18° 269° (W) 23:47:22 434.975-435.025
ESTCUBE 1 07 Jul 23:42:11 23:46:34 46° 261° (W) 23:50:58 437.505/2401.250
VELOX 1 07 Jul 23:45:14 23:49:07 28° 265° (W) 23:52:59 145.980
HUMSAT D 07 Jul 23:48:09 23:49:44 12° 272° (W) 23:51:05 437.325/437.525
SPROUT 07 Jul 23:50:15 23:54:27 55° 73° (ENE) 23:58:40 437.525
UNISAT 6 07 Jul 23:54:21 23:58:38 52° 287° (WNW) 00:03:00 437.425
QB50P1 07 Jul 23:55:22 23:59:35 68° 101° (E) 00:03:46 145.935-145.965
UKube-1 07 Jul 23:57:38 23:59:47 13° 271° (W) 00:01:44 .
